Simultaneous Nadir Overpasses (SNOs) Predictions

Prediction of SNOs between GOES-14 and NOAA-20 Satellite Orbit:

Table of predicted SNOs for the next 14.0 days since TLE Epoch: 8/28/2020
Index Date Time (GOES-14) GOES-14 Lat,Lon NOAA-20 Lat,Lon Distance(km) Time Diff (sec)
1 08/29/2020 08:10:55 0.40,-104.44 -0.15,-101.92 286.96 80
2 08/30/2020 20:32:52 -0.40,-104.57 -0.99,-107.23 302.83 80
3 08/31/2020 20:16:46 -0.40,-104.58 0.02,-102.70 214.09 80
4 09/02/2020 08:38:32 0.39,-104.45 1.18,-107.96 400.19 80
5 09/03/2020 08:17:07 0.39,-104.44 0.18,-103.42 115.21 80
6 09/04/2020 20:39:03 -0.39,-104.55 -1.31,-108.74 477.06 80
7 09/05/2020 20:22:58 -0.39,-104.56 -0.31,-104.20 40.29 80
8 09/08/2020 08:25:59 0.38,-104.45 0.50,-104.93 55.17 80
9 09/09/2020 08:04:33 0.39,-104.43 -0.50,-100.39 460.18 80
10 09/10/2020 20:26:29 -0.37,-104.53 -0.63,-105.71 133.89 80
